sat.trackr.live / text

‹ back to catalog

OUTPOST MISSION 2

NORAD 58334 · 2023-174CG

PAYLOAD ACTIVE UNKNOWN

§ Identity

Operator
Country
US
Launch date
2023-11-11
Launch site
AFWTR
Launch vehicle
Mass (kg)
RCS (m²)

External: N2YO · Heavens-Above · Gunter

§ Orbital elements

Epoch: 2026-09-21T22:35:09.430368Z

Period
91.99 min
Inclination
97.3936°
Eccentricity
0.0004513
Mean motion
15.65379026 rev/d
Perigee alt
369.1 km
Apogee alt
375.2 km
Semi-major
6,750.3 km
B*
4.5609e-4
RAAN
2.1022°
Arg perigee
121.6979°
Mean anomaly
238.4721°
Rev number
16,092

§ Raw data

OUTPOST MISSION 21 58334U 23174CG  26264.94108137  .00045467  00000+0  45609-3 0  99952 58334  97.3936   2.1022 0004513 121.6979 238.4721 15.65379026160926

JSON: /api/v1/satellites/58334 · /tle

For live sub-satellite position, see the globe view (requires WebGL).

§ Visibility from observer

Set your observer location to see the next 7 days of passes ≥ 10°. The values pass through the URL so the page stays shareable.

No JS? Fill the form by hand. The geolocation button needs JavaScript.

§ Radio — SatNOGS DB

ModeDescriptionDownlinkUplink
FM Mode U - Transmitter 401.250 MHz
FM Mode U - Transmitter 401.500 MHz

2 transmitters · refreshed weekly from db.satnogs.org